W5CGC Weather Reports


Display with metric or nautical units.
time (UTC)temp
F
wind
direction
speed
MPH
gust
MPH
rain 1hr
in
rain 24hr
in
rain mn
in
humidity
%
barometer
mb
20180818063421 0 0.0 0.0 0.00 0.00 0.00 1014.5
20180818061917 0 0.0 0.0 0.00 0.00 0.00 1014.6
20180818060412 0 0.0 0.0 0.00 0.00 0.00 1014.4
20180818054908 0 0.0 0.0 0.00 0.00 0.00 1014.2
20180818053404 0 0.0 0.0 0.00 0.00 0.00 1014.1
20180818051859 0 0.0 0.0 0.00 0.00 0.00 1014.0
20180818050355 0 0.0 0.0 0.00 0.00 0.00 1013.9
20180818044856 0 0.0 0.0 0.00 0.00 0.00 1013.9
20180818043356 0 0.0 0.0 0.00 0.00 0.00 1013.8
20180818041851 0 0.0 0.0 0.00 0.00 0.00 1013.7
20180818040349 0 0.0 0.0 0.00 0.00 0.00 1013.7
20180818034839 0 0.0 0.0 0.00 0.00 0.00 1013.9
20180818033336 0 0.0 0.0 0.00 0.00 0.00 1013.9
20180818031833 0 0.0 0.0 0.00 0.00 0.00 1013.7
20180818030327 0 0.0 0.0 0.00 0.00 0.00 1013.9
20180818024823 0 0.0 0.0 0.00 0.00 0.00 1013.9
20180818023318 0 0.0 0.0 0.00 0.00 0.00 1014.0
20180818021814 0 0.0 0.0 0.00 0.00 0.00 1014.0
20180818020311 0 0.0 0.0 0.00 0.00 0.00 1014.0
20180818014806 0 0.0 0.0 0.00 0.00 0.00 1013.7
20180818013301 0 0.0 0.0 0.00 0.00 0.00 1013.7
20180818011755 0 0.0 0.0 0.00 0.00 0.00 1013.7
20180818010253 0 0.0 0.0 0.00 0.00 0.00 1013.5
20180818004747 0 0.0 0.0 0.00 0.00 0.00 1013.3
20180818003243 0 0.0 0.0 0.00 0.00 0.00 1012.9
20180818001741 -90 184 0.0 2.0 0.00 0.00 0.00 2 1012.9
20180818000236 105 178 0.0 3.0 0.00 0.00 0.00 2 1012.6
20180817234730 96 214 0.0 4.0 0.00 0.00 0.00 49 1012.5
20180817233225 97 215 0.0 5.0 0.00 0.00 0.00 49 1012.5
20180817231723 97 181 0.0 2.0 0.00 0.00 0.00 49 1012.4
20180817230215 98 169 0.0 6.0 0.00 0.00 0.00 49 1012.4
20180817224711 98 198 0.0 7.0 0.00 0.00 0.00 49 1012.5
20180817223206 98 165 0.0 5.0 0.00 0.00 0.00 48 1012.6
20180817221702 98 221 0.0 6.0 0.00 0.00 0.00 49 1012.6
20180817220159 99 150 0.0 4.0 0.00 0.00 0.00 49 1012.8
20180817214653 98 195 0.0 6.0 0.00 0.00 0.00 48 1013.0
20180817213149 99 77 0.0 4.0 0.00 0.00 0.00 48 1013.2
20180817211645 99 118 0.0 4.0 0.00 0.00 0.00 49 1013.3
20180817210140 99 172 0.0 7.0 0.00 0.00 0.00 48 1013.5
20180817204633 98 176 0.0 7.0 0.00 0.00 0.00 51 1013.8
20180817203130 98 219 0.0 7.0 0.00 0.00 0.00 50 1014.1
20180817201625 98 163 1.0 6.0 0.00 0.00 0.00 51 1014.4
20180817200123 98 160 1.0 7.0 0.00 0.00 0.00 52 1014.6
20180817194621 97 207 0.0 6.0 0.00 0.00 0.00 52 1014.8
20180817193114 97 169 0.0 4.0 0.00 0.00 0.00 54 1015.0
20180817191623 96 186 0.0 4.0 0.00 0.00 0.00 53 1015.3
20180817190114 95 195 0.0 6.0 0.00 0.00 0.00 54 1015.5
20180817184610 94 167 0.0 4.0 0.00 0.00 0.00 59 1015.5
20180817183101 93 216 0.0 7.0 0.00 0.00 0.00 61 1015.7
20180817181556 92 131 0.0 9.0 0.00 0.00 0.00 62 1015.7
20180817180055 91 253 0.0 6.0 0.00 0.00 0.00 64 1015.8
20180817174620 90 153 0.0 4.0 0.00 0.00 0.00 64 1015.9
20180817173151 90 128 0.0 1.0 0.00 0.00 0.00 65 1016.2
20180817171548 89 184 0.0 1.0 0.00 0.00 0.00 68 1016.4
20180817170127 86 169 0.0 1.0 0.00 0.00 0.00 72 1016.6
20180817164547 84 170 0.0 0.0 0.00 0.00 0.00 75 1016.7
20180817163044 83 171 0.0 0.0 0.00 0.00 0.00 77 1016.8
20180817161539 82 172 0.0 0.0 0.00 0.00 0.00 78 1016.8
20180817160033 81 172 0.0 0.0 0.00 0.00 0.00 78 1016.1
20180817154528 0 0.0 0.0 0.00 0.00 0.00 1016.4
20180817153029 0 0.0 0.0 0.00 0.00 0.00 1016.5
20180817151537 -90 124 0.0 0.0 0.00 0.00 0.00 2 1016.5
20180817150015 89 176 0.0 0.0 0.00 0.00 0.00 100 1016.9
20180817144508 83 129 0.0 1.0 0.00 0.00 0.00 74 1017.0
20180817143007 83 193 0.0 1.0 0.00 0.00 0.00 73 1016.6
20180817141501 82 184 0.0 3.0 0.00 0.00 0.00 74 1016.3
20180817135956 82 177 0.0 3.0 0.00 0.00 0.00 76 1016.1
20180817134451 83 194 0.0 0.0 0.00 0.00 0.00 100 1016.2
20180817132946 81 198 0.0 2.0 0.00 0.00 0.00 81 1016.1
20180817131442 81 194 0.0 1.0 0.00 0.00 0.00 79 1016.1
20180817125940 0 0.0 0.0 0.00 0.00 0.00 1016.0
20180817124433 0 0.0 0.0 0.00 0.00 0.00 1015.8
20180817122928 0 0.0 0.0 0.00 0.00 0.00 1015.9
20180817121424 0 0.0 0.0 0.00 0.00 0.00 1015.6
20180817115925 0 0.0 0.0 0.00 0.00 0.00 1015.6
20180817114416 0 0.0 0.0 0.00 0.00 0.00 1015.6
20180817112911 0 0.0 0.0 0.00 0.00 0.00 1015.3
20180817111407 0 0.0 0.0 0.00 0.00 0.00 1015.0
20180817105907 0 0.0 0.0 0.00 0.00 0.00 1015.2
20180817104400 0 0.0 0.0 0.00 0.00 0.00 1014.9
20180817102853 0 0.0 0.0 0.00 0.00 0.00 1014.8
20180817101351 0 0.0 0.0 0.00 0.00 0.00 1014.8
20180817095849 0 0.0 0.0 0.00 0.00 0.00 1014.7
20180817094342 0 0.0 0.0 0.00 0.00 0.00 1014.9
20180817092836 -90 225 0.0 4.0 0.00 0.00 0.00 2 1014.9
20180817091332 0 0.0 0.0 0.00 0.00 0.00 1014.7
20180817085832 0 0.0 0.0 0.00 0.00 0.00 1014.7
20180817084324 0 0.0 0.0 0.00 0.00 0.00 1014.8
20180817082819 -90 162 0.0 5.0 0.00 0.00 0.00 2 1014.8
20180817081314 -90 186 1.0 8.0 0.00 0.00 0.00 2 1014.7
20180817075810 -90 197 1.0 9.0 0.00 0.00 0.00 2 1014.6
20180817074304 -90 186 2.0 7.0 0.00 0.00 0.00 2 1014.5
20180817072802 85 188 1.0 11.0 0.00 0.00 0.00 70 1014.4
20180817071302 85 205 0.0 9.0 0.00 0.00 0.00 69 1014.4
20180817065758 84 167 1.0 6.0 0.00 0.00 0.00 70 1014.4